Location: Bonaustraße
(48.4603°N, 11.9280°E)
Time: 03:55:43
(UTC+01:00)

Envisat - Pass Details

Date: 23 January 2021
Orbit: 764 x 766 km, 98.1° (Epoch: 05 March)

Event Time Altitude Azimuth Distance (km) Brightness Sun altitude
Rises 06:46:36 0° 9° (N) 3,245 6.2 -10.8°
Reaches altitude 10° 06:49:00 10° 3° (N) 2,314 5.3 -10.4°
Maximum altitude 06:53:50 45° 292° (WNW) 1,036 3.3 -9.6°
Drops below altitude 10° 06:58:38 10° 220° (SW) 2,298 5.3 -8.9°
Sets 07:01:00 0° 215° (SW) 3,219 6.1 -8.5°
